Change the Weather History Date:

Thursday, February 6, 2014

  Actual Average Record
Temperature  
Mean Temperature 22 °F -  
Max Temperature 26 °F 46 °F 68 °F (1963)
Min Temperature 18 °F 30 °F 8 °F (1984)
Degree Days  
Heating Degree Days 43    
Moisture  
Dew Point 17 °F    
Average Humidity 84    
Maximum Humidity 88    
Minimum Humidity 78    
Precipitation  
Precipitation 0.00 in - - ()
Sea Level Pressure  
Sea Level Pressure 30.52 in    
Wind  
Wind Speed 13 mph (NNE)    
Max Wind Speed 17 mph    
Max Gust Speed 22 mph    
Visibility 10 miles    
Events Snow    
Averages and records for this station are not official NWS values.
T = Trace of Precipitation, MM = Missing Value Source: NWS Daily Summary

Daily Weather History Graph

Daily Weather History Graph

Search for Another Location

Airport or City:

Trip Planner

Search our weather history database for the weather conditions in past years. The results will help you decide how hot, cold, wet, or windy it might be!

Date:

Astronomy

Feb. 06, 2014 Rise Set
Actual Time 6:55 AM CST 5:34 PM CST
Civil Twilight 6:29 AM CST 6:01 PM CST
Nautical Twilight 5:59 AM CST 6:31 PM CST
Astronomical Twilight 5:29 AM CST 7:00 PM CST
Moon 11:07 AM CST (2/6) 12:11 AM CST (2/6)
Length of Visible Light 11h 31m
Length of Day
10h 38m
Waxing Crescent, 49% of the Moon is Illuminated
Feb 6
Waxing Crescent
Feb 6
First Quarter
Feb 14
Full
Feb 22
Last Quarter
Mar 1
New

Hourly Weather History & Observations

Time (CST) Temp. Windchill Dew Point Humidity Pressure Visibility Wind Dir Wind Speed Gust Speed Precip Events Conditions
12:53 AM 26.1 °F 15.0 °F 19.9 °F 78% 30.49 in 10.0 mi NNE 12.7 mph 19.6 mph N/A   Overcast
1:53 AM 25.0 °F 13.6 °F 19.0 °F 78% 30.48 in 10.0 mi NNE 12.7 mph - N/A   Overcast
2:53 AM 25.0 °F 13.1 °F 19.9 °F 81% 30.49 in 10.0 mi North 13.8 mph - N/A   Overcast
3:53 AM 24.1 °F 12.0 °F 19.0 °F 81% 30.49 in 10.0 mi North 13.8 mph - N/A   Overcast
4:53 AM 23.0 °F 9.6 °F 18.0 °F 81% 30.50 in 10.0 mi NNE 16.1 mph 20.7 mph N/A   Overcast
5:53 AM 21.9 °F 8.2 °F 17.1 °F 82% 30.53 in 10.0 mi North 16.1 mph 21.9 mph N/A   Overcast
6:53 AM 21.0 °F 7.6 °F 18.0 °F 88% 30.55 in 10.0 mi NNE 15.0 mph - N/A   Overcast
7:53 AM 21.0 °F 7.6 °F 16.0 °F 81% 30.57 in 10.0 mi NNE 15.0 mph 21.9 mph N/A   Overcast
8:31 AM 21.2 °F 8.3 °F 15.8 °F 80% 30.55 in 10.0 mi North 13.8 mph - N/A   Overcast
8:53 AM 21.0 °F 6.6 °F 17.1 °F 85% 30.57 in 10.0 mi North 17.3 mph 20.7 mph N/A   Overcast
9:53 AM 21.0 °F 7.1 °F 17.1 °F 85% 30.58 in 10.0 mi NNE 16.1 mph - N/A   Overcast
10:53 AM 21.0 °F 8.1 °F 17.1 °F 85% 30.56 in 10.0 mi NNE 13.8 mph - N/A   Overcast
11:53 AM 21.0 °F 8.6 °F 17.1 °F 85% 30.54 in 10.0 mi NNE 12.7 mph - N/A   Overcast
12:53 PM 21.9 °F 11.0 °F 18.0 °F 85% 30.51 in 10.0 mi NNE 10.4 mph - N/A   Overcast
1:53 PM 21.9 °F 11.0 °F 17.1 °F 82% 30.52 in 10.0 mi North 10.4 mph - N/A   Overcast
2:53 PM 23.0 °F 11.7 °F 18.0 °F 81% 30.50 in 10.0 mi NNE 11.5 mph - 0.00 in   Overcast
3:53 PM 21.9 °F 10.4 °F 18.0 °F 85% 30.50 in 10.0 mi North 11.5 mph - N/A   Overcast
4:53 PM 21.0 °F 9.9 °F 17.1 °F 85% 30.51 in 8.0 mi NNE 10.4 mph - 0.00 in Snow Light Snow
5:53 PM 21.0 °F 10.6 °F 17.1 °F 85% 30.51 in 10.0 mi North 9.2 mph - 0.00 in   Overcast
6:53 PM 21.0 °F 10.6 °F 16.0 °F 81% 30.50 in 10.0 mi NNE 9.2 mph - N/A   Overcast
7:53 PM 19.9 °F 10.1 °F 16.0 °F 85% 30.49 in 10.0 mi NNE 8.1 mph - N/A   Mostly Cloudy
8:53 PM 19.9 °F 11.1 °F 16.0 °F 85% 30.50 in 10.0 mi North 6.9 mph - N/A   Overcast
9:40 PM 19.4 °F 9.5 °F 15.8 °F 86% 30.48 in 10.0 mi North 8.1 mph - N/A   Scattered Clouds
9:53 PM 19.0 °F 10.0 °F 15.1 °F 85% 30.50 in 10.0 mi North 6.9 mph - N/A   Clear
10:53 PM 18.0 °F 7.7 °F 15.1 °F 88% 30.50 in 10.0 mi NNE 8.1 mph - N/A   Clear
11:53 PM 18.0 °F 11.1 °F 15.1 °F 88% 30.48 in 10.0 mi NNE 4.6 mph - N/A   Clear